Location: Glen Waverley
(37.8830°S, 145.1670°E)
Time: 05:13:00
(UTC+10:00)

ISS - Visible Passes

Search period start: 03 August 2021 00:00
Search period end: 13 August 2021 00:00
Orbit: 419 x 421 km, 51.6° (Epoch: 02 August)

Date Brightness Start Highest point End Pass type
(mag) Time Alt. Az. Time Alt. Az. Time Alt. Az.
03 Aug -1.1 06:23:59 10° S 06:25:34 13° SSE 06:27:09 10° SE visible
04 Aug -1.0 05:37:23 10° S 05:37:57 10° SSE 05:38:31 10° SSE visible
05 Aug -1.7 06:25:25 10° SSW 06:28:11 22° SSE 06:30:56 10° E visible
06 Aug -1.4 05:39:28 14° S 05:40:39 16° SSE 05:42:55 10° ESE visible
07 Aug -0.7 04:54:06 11° SE 04:54:06 11° SE 04:54:41 10° SE visible
07 Aug -3.1 06:27:11 10° SW 06:30:33 52° SE 06:33:53 10° ENE visible
08 Aug -2.3 05:41:47 23° S 05:43:08 32° SSE 05:46:15 10° E visible
09 Aug -1.2 04:56:33 20° SE 04:56:33 20° SE 04:58:25 10° E visible
09 Aug -3.3 06:29:33 11° WSW 06:32:38 47° NW 06:35:56 10° NNE visible
10 Aug -3.8 05:44:24 45° SW 05:45:21 88° NW 05:48:45 10° NE visible
11 Aug -1.8 04:59:22 30° E 04:59:22 30° E 05:01:20 10° ENE visible
11 Aug -1.7 06:32:27 10° W 06:34:29 15° NW 06:36:29 10° NNW visible
12 Aug -2.5 05:47:26 26° NW 05:47:26 26° NW 05:50:10 10° N visible
